EW6614 Weather Reports


Display with metric or nautical units.
time (UTC)temp
F
wind
direction
speed
MPH
gust
MPH
rain 1hr
in
rain 24hr
in
rain mn
in
humidity
%
barometer
mb
20260906000111 76 0 0.0 0.0 0.02 1.17 1.17 52 1012.5
20260906000107 76 360 0.0 0.0 0.02 1.18 1.18 63 1012.1
20260905234606 75 0 0.0 1.0 0.02 1.17 1.17 52 1012.4
20260905234506 75 360 0.0 0.0 0.02 1.18 1.18 63 1012.0
20260905233117 76 0 0.0 1.0 0.01 1.16 1.16 53 1012.5
20260905233005 76 360 0.0 1.0 0.01 1.17 1.17 64 1012.1
20260905231601 75 0 0.0 2.0 0.01 1.16 1.16 52 1012.7
20260905231506 76 360 0.0 2.0 0.01 1.17 1.17 64 1012.2
20260905230105 76 0 1.0 8.0 0.00 1.16 1.16 53 1012.5
20260905230006 76 360 1.0 6.0 0.00 1.15 1.15 65 1012.1
20260905224604 76 360 3.0 6.0 0.00 1.16 1.16 53 1012.9
20260905224505 76 360 2.0 6.0 0.00 1.15 1.15 65 1012.5
20260905223105 76 360 2.0 6.0 0.01 1.16 1.16 54 1012.9
20260905223016 76 360 2.0 6.0 0.01 1.15 1.15 66 1012.4
20260905221605 75 360 1.0 4.0 0.09 1.16 1.16 55 1012.4
20260905221503 75 360 1.0 4.0 0.09 1.15 1.15 66 1011.8
20260905220105 75 360 0.0 3.0 0.41 1.16 1.16 55 1012.1
20260905220003 75 360 0.0 3.0 0.42 1.15 1.15 67 1011.3
20260905214604 75 360 0.0 4.0 1.16 1.16 1.16 57 1011.9
20260905214503 75 360 0.0 4.0 1.15 1.15 1.15 68 1011.2
20260905213113 74 0 0.0 4.0 1.15 1.15 1.15 57 1012.0
20260905213001 74 360 0.0 4.0 1.14 1.14 1.14 68 1011.3
20260905211610 74 360 4.0 6.0 1.07 1.07 1.07 58 1012.8
20260905211504 74 360 3.0 6.0 1.06 1.06 1.06 70 1012.2
20260905210112 76 360 10.0 20.0 0.75 0.75 0.75 62 1012.7
20260905210100 76 360 9.0 19.0 0.74 0.74 0.74 73 1012.0
20260905204603 80 360 3.0 10.0 0.00 0.00 0.00 59 1013.1
20260905204559 80 360 5.0 12.0 0.00 0.00 0.00 70 1012.6
20260905203102 83 284 5.0 13.0 0.00 0.00 0.00 56 1011.4
20260905203059 83 284 6.0 15.0 0.00 0.00 0.00 67 1010.6
20260905201603 86 321 4.0 16.0 0.00 0.00 0.00 52 1011.5
20260905200103 90 320 3.0 11.0 0.00 0.00 0.00 50 1011.7
20260905200053 90 320 2.0 11.0 0.00 0.00 0.00 61 1010.9
20260905194603 92 348 1.0 4.0 0.00 0.00 0.00 45 1011.6
20260905194550 92 348 1.0 3.0 0.00 0.00 0.00 56 1010.8
20260905193104 93 129 1.0 7.0 0.00 0.00 0.00 44 1011.6
20260905193048 93 129 2.0 4.0 0.00 0.00 0.00 56 1010.9
20260905191602 92 93 1.0 5.0 0.00 0.00 0.00 46 1011.7
20260905191546 92 93 0.0 4.0 0.00 0.00 0.00 58 1011.0
20260905190104 91 342 3.0 11.0 0.00 0.00 0.00 48 1011.8
20260905190043 91 342 2.0 11.0 0.00 0.00 0.00 60 1011.2
20260905184610 91 340 3.0 6.0 0.00 0.00 0.00 48 1012.0
20260905184545 91 340 2.0 6.0 0.00 0.00 0.00 60 1011.4
20260905183119 91 360 3.0 11.0 0.00 0.00 0.00 50 1012.1
20260905183043 91 360 2.0 11.0 0.00 0.00 0.00 62 1011.7
20260905181606 90 121 3.0 12.0 0.00 0.00 0.00 52 1012.3
20260905181535 90 148 2.0 8.0 0.00 0.00 0.00 64 1011.8
20260905180105 90 304 3.0 8.0 0.00 0.00 0.00 52 1012.5
20260905180033 90 304 5.0 8.0 0.00 0.00 0.00 63 1012.0
20260905174601 88 69 1.0 7.0 0.00 0.00 0.00 54 1012.7
20260905174528 88 71 1.0 6.0 0.00 0.00 0.00 66 1012.3
20260905173108 87 244 2.0 4.0 0.00 0.00 0.00 55 1013.0
20260905173025 87 244 2.0 4.0 0.00 0.00 0.00 67 1012.5
20260905171603 86 0 0.0 0.0 0.00 0.00 0.00 57 1013.4
20260905171524 86 291 0.0 0.0 0.00 0.00 0.00 68 1012.9
20260905170022 86 291 1.0 5.0 0.00 0.00 0.00 68 1013.0
20260905164604 85 0 1.0 4.0 0.00 0.00 0.00 58 1013.7
20260905164522 85 325 1.0 4.0 0.00 0.00 0.00 69 1013.1
20260905163108 86 336 2.0 5.0 0.00 0.00 0.00 56 1014.0
20260905163024 85 336 2.0 5.0 0.00 0.00 0.00 68 1013.4
20260905161600 86 0 0.0 6.0 0.00 0.00 0.00 55 1014.1
20260905161523 86 92 0.0 3.0 0.00 0.00 0.00 67 1013.6
20260905160107 85 5 2.0 8.0 0.00 0.00 0.00 55 1014.1
20260905160019 85 13 3.0 6.0 0.00 0.00 0.00 66 1013.6
20260905154601 85 338 2.0 6.0 0.00 0.00 0.00 54 1014.1
20260905154517 85 336 2.0 5.0 0.00 0.00 0.00 66 1013.6
20260905153116 84 343 2.0 8.0 0.00 0.00 0.00 53 1014.1
20260905153019 84 343 2.0 8.0 0.00 0.00 0.00 64 1013.6
20260905151611 83 5 1.0 6.0 0.00 0.00 0.00 52 1014.0
20260905151514 83 5 0.0 4.0 0.00 0.00 0.00 64 1013.5
20260905150059 82 0 1.0 4.0 0.00 0.00 0.00 50 1014.0
20260905150016 82 313 1.0 4.0 0.00 0.00 0.00 61 1013.5
20260905144603 80 0 0.0 2.0 0.00 0.00 0.00 48 1013.9
20260905144511 80 192 0.0 2.0 0.00 0.00 0.00 60 1013.4
20260905143103 79 0 0.0 0.0 0.00 0.00 0.00 48 1014.1
20260905143003 79 189 0.0 0.0 0.00 0.00 0.00 60 1013.6
20260905141609 79 0 0.0 0.0 0.00 0.00 0.00 49 1014.2
20260905141502 79 189 0.0 0.0 0.00 0.00 0.00 60 1013.7
20260905140121 79 188 0.0 0.0 0.00 0.00 0.00 61 1013.6
20260905140108 79 0 0.0 0.0 0.00 0.00 0.00 49 1014.1
20260905134604 78 0 0.0 0.0 0.00 0.00 0.00 49 1013.9
20260905134602 78 188 0.0 0.0 0.00 0.00 0.00 61 1013.5
20260905133058 78 0 0.0 0.0 0.00 0.00 0.00 49 1013.9
20260905133055 78 188 0.0 0.0 0.00 0.00 0.00 61 1013.5
20260905131618 77 0 0.0 0.0 0.00 0.00 0.00 50 1013.7
20260905131558 77 188 0.0 0.0 0.00 0.00 0.00 61 1013.3
20260905130105 77 0 0.0 0.0 0.00 0.00 0.00 50 1013.6
20260905130053 77 360 0.0 0.0 0.00 0.00 0.00 61 1013.1
20260905124602 76 0 0.0 0.0 0.00 0.00 0.00 51 1013.5
20260905124554 76 360 0.0 0.0 0.00 0.00 0.00 62 1013.0
20260905123106 76 0 0.0 0.0 0.00 0.00 0.00 51 1013.5
20260905123055 76 360 0.0 0.0 0.00 0.00 0.00 62 1013.0
20260905121603 76 0 0.0 0.0 0.00 0.00 0.00 51 1013.4
20260905121552 76 360 0.0 0.0 0.00 0.00 0.00 62 1013.1
20260905120049 76 360 0.0 0.0 0.00 0.00 0.00 62 1012.7
20260905114604 76 0 0.0 0.0 0.00 0.00 0.00 51 1013.0
20260905114549 76 360 0.0 0.0 0.00 0.00 0.00 62 1012.6
20260905113101 76 0 0.0 0.0 0.00 0.00 0.00 51 1013.0
20260905113048 76 360 0.0 0.0 0.00 0.00 0.00 62 1012.6
20260905111601 76 0 0.0 0.0 0.00 0.00 0.00 51 1012.9
20260905111552 76 360 0.0 0.0 0.00 0.00 0.00 63 1012.5
20260905110106 76 0 0.0 0.0 0.00 0.00 0.00 51 1012.9
20260905110048 76 360 0.0 0.0 0.00 0.00 0.00 63 1012.5
20260905104606 76 0 0.0 0.0 0.00 0.00 0.00 52 1012.9
20260905104602 76 360 0.0 0.0 0.00 0.00 0.00 63 1012.5
20260905103059 76 0 0.0 0.0 0.00 0.00 0.00 53 1012.8
20260905103044 76 360 0.0 0.0 0.00 0.00 0.00 64 1012.3
20260905101602 76 0 0.0 0.0 0.00 0.00 0.00 53 1012.7
20260905101543 76 360 0.0 0.0 0.00 0.00 0.00 65 1012.2
20260905100120 76 0 0.0 0.0 0.00 0.00 0.00 53 1012.5
20260905100045 76 360 0.0 0.0 0.00 0.00 0.00 65 1012.1
20260905094558 76 0 0.0 0.0 0.00 0.00 0.00 53 1012.4
20260905094542 76 360 0.0 0.0 0.00 0.00 0.00 65 1012.0
20260905093102 77 0 0.0 0.0 0.00 0.00 0.00 53 1012.5
20260905093041 77 360 0.0 0.0 0.00 0.00 0.00 65 1012.0
20260905091600 76 0 0.0 0.0 0.00 0.00 0.00 53 1012.4
20260905091541 76 360 0.0 0.0 0.00 0.00 0.00 65 1012.0
20260905090136 76 0 0.0 0.0 0.00 0.00 0.00 53 1012.4
20260905090103 76 360 0.0 0.0 0.00 0.00 0.00 65 1011.9
20260905084556 76 0 0.0 0.0 0.00 0.00 0.00 53 1012.3
20260905084539 76 360 0.0 0.0 0.00 0.00 0.00 65 1011.9
20260905083105 77 0 0.0 0.0 0.00 0.00 0.00 53 1012.4
20260905083037 77 360 0.0 0.0 0.00 0.00 0.00 65 1012.1
20260905081604 77 0 0.0 0.0 0.00 0.00 0.00 53 1012.5
20260905081536 77 360 0.0 0.0 0.00 0.00 0.00 65 1012.0
20260905080059 77 0 0.0 0.0 0.00 0.00 0.00 53 1012.6
20260905080036 77 360 0.0 0.0 0.00 0.00 0.00 65 1012.1
20260905074607 77 0 0.0 0.0 0.00 0.00 0.00 55 1012.6
20260905074534 77 360 0.0 0.0 0.00 0.00 0.00 67 1012.3
20260905073105 77 0 0.0 0.0 0.00 0.00 0.00 55 1012.8
20260905073039 77 360 0.0 0.0 0.00 0.00 0.00 67 1012.3
20260905071603 77 0 0.0 0.0 0.00 0.00 0.00 56 1012.7
20260905071533 77 360 0.0 0.0 0.00 0.00 0.00 68 1012.2
20260905070035 77 360 0.0 0.0 0.00 0.00 0.00 68 1012.3
20260905064602 77 0 0.0 0.0 0.00 0.00 0.00 57 1012.7
20260905064531 77 360 0.0 0.0 0.00 0.00 0.00 69 1012.3
20260905063105 77 0 0.0 0.0 0.00 0.00 0.00 57 1012.8
20260905063030 77 360 0.0 0.0 0.00 0.00 0.00 69 1012.3
20260905061605 77 0 0.0 0.0 0.00 0.00 0.00 59 1012.8
20260905061538 77 360 0.0 0.0 0.00 0.00 0.00 70 1012.3
20260905060059 77 0 0.0 0.0 0.00 0.00 0.00 59 1012.7
20260905060029 77 360 0.0 0.0 0.00 0.00 0.00 70 1012.3
20260905054605 77 0 0.0 0.0 0.00 0.00 0.00 60 1012.7
20260905054532 77 360 0.0 0.0 0.00 0.00 0.00 71 1012.1
20260905053059 78 0 0.0 0.0 0.00 0.00 0.00 60 1012.7
20260905053025 78 360 0.0 0.0 0.00 0.00 0.00 72 1012.2
20260905051606 78 0 0.0 0.0 0.00 0.00 0.00 61 1012.7
20260905051524 78 360 0.0 0.0 0.00 0.00 0.00 72 1012.2
20260905050107 78 0 0.0 0.0 0.00 0.00 0.00 60 1012.8
20260905050021 78 360 0.0 0.0 0.00 0.00 0.00 71 1012.2
20260905044603 79 0 0.0 0.0 0.00 0.00 0.00 61 1012.8
20260905044527 79 360 0.0 0.0 0.00 0.00 0.00 72 1012.3
20260905043102 79 0 0.0 0.0 0.00 0.00 0.00 62 1013.0
20260905043020 79 360 0.0 0.0 0.00 0.00 0.00 73 1012.4
20260905041601 80 0 0.0 0.0 0.00 0.00 0.00 61 1013.1
20260905041527 80 360 0.0 0.0 0.00 0.00 0.00 73 1012.5
20260905040104 80 0 0.0 0.0 0.00 0.00 0.00 61 1013.2
20260905040019 80 360 0.0 0.0 0.00 0.00 0.00 73 1012.8
20260905034604 81 0 0.0 0.0 0.00 0.00 0.00 61 1013.3
20260905034518 81 360 0.0 0.0 0.00 0.00 0.00 73 1012.8
20260905033104 81 0 0.0 0.0 0.00 0.00 0.00 61 1013.3
20260905033018 81 360 0.0 0.0 0.00 0.00 0.00 72 1012.7
20260905031612 81 0 0.0 0.0 0.00 0.00 0.00 60 1013.4
20260905031518 81 360 0.0 0.0 0.00 0.00 0.00 72 1012.8
20260905030113 81 0 0.0 0.0 0.00 0.00 0.00 60 1013.3
20260905030017 81 360 0.0 0.0 0.00 0.00 0.00 72 1012.7
20260905024600 81 0 0.0 0.0 0.00 0.00 0.00 60 1013.4
20260905024517 81 360 0.0 0.0 0.00 0.00 0.00 72 1012.7
20260905023107 82 0 0.0 0.0 0.00 0.00 0.00 60 1013.1
20260905023016 82 360 0.0 0.0 0.00 0.00 0.00 71 1012.5
20260905021606 82 0 0.0 0.0 0.00 0.00 0.00 59 1012.8
20260905021527 82 360 0.0 0.0 0.00 0.00 0.00 71 1012.1
20260905020014 83 360 0.0 0.0 0.00 0.00 0.00 70 1011.9
20260905014601 83 0 0.0 0.0 0.00 0.00 0.00 58 1012.3
20260905014513 83 360 0.0 0.0 0.00 0.00 0.00 69 1011.6
20260905013103 84 360 0.0 3.0 0.00 0.00 0.00 58 1012.1
20260905013015 84 360 1.0 3.0 0.00 0.00 0.00 70 1011.5
20260905011606 85 0 0.0 0.0 0.00 0.00 0.00 56 1012.1
20260905011513 85 188 0.0 0.0 0.00 0.00 0.00 68 1011.4
20260905010109 86 0 0.0 0.0 0.00 0.00 0.00 54 1012.0
20260905010013 86 188 0.0 0.0 0.00 0.00 0.00 66 1011.3
20260905004603 88 0 0.0 3.0 0.00 0.00 0.00 54 1012.0
20260905004511 88 360 0.0 3.0 0.00 0.00 0.00 66 1011.2
20260905003102 89 188 0.0 2.0 0.00 0.00 0.00 52 1011.9
20260905003011 89 188 0.0 2.0 0.00 0.00 0.00 63 1011.2
20260905001606 90 188 1.0 3.0 0.00 0.00 0.00 48 1011.9
20260905001512 90 188 1.0 3.0 0.00 0.00 0.00 60 1011.3